Probability
1 2 3 3 4 5 5 4 4 2 0 0 1 2 3 3 2 1 1 1 3 3 3 3 3 3 5 6 6 6 6 6 8 9 7 4 2 1 0 0 0 0 0
1 3 3 3 5 6 7 6 5 3 1 1 2 3 3 3 2 2 2 2 3 3 3 2 3 3 4 6 6 6 5 5 6 8 6 3 1 0 0 0 0 0 0
4 4 5 5 7 8 9 9 8 5 2 2 3 3 4 4 4 4 4 4 4 3 4 4 3 3 3 5 6 5 5 4 5 7 6 3 1 0 0 0 0 0 0
9 9 10 11 12 12 11 11 10 7 5 4 4 4 5 7 7 6 6 6 5 5 6 6 5 5 5 6 6 6 6 6 6 7 5 4 2 1 0 0 0 0 0
14 15 17 20 20 16 14 12 11 9 8 7 6 5 6 10 11 10 8 7 7 8 7 6 7 8 8 7 7 7 7 7 7 7 5 3 2 1 0 0 0 0 0
19 19 20 23 23 20 17 14 11 10 9 8 6 5 7 12 15 14 9 7 8 10 9 9 10 10 10 9 8 8 7 7 6 6 3 2 2 1 0 0 0 0 0
22 20 19 22 23 21 19 16 13 12 10 8 7 6 7 11 14 14 11 9 9 11 11 12 12 12 12 10 8 7 7 5 4 4 3 2 2 2 1 1 0 0 0
24 22 21 23 23 21 20 18 16 14 13 10 10 8 7 9 11 12 12 12 11 12 12 12 11 12 14 12 9 8 7 5 4 3 3 3 2 2 2 1 0 0 0
24 23 23 25 25 22 20 18 17 16 14 13 12 9 7 9 11 12 12 12 12 12 12 9 8 12 16 16 12 10 7 5 3 3 4 3 1 1 1 1 0 0 0
23 22 23 25 25 23 20 19 19 17 15 13 11 9 10 13 14 13 12 11 11 11 11 10 9 12 17 19 17 11 7 4 2 3 4 3 1 0 0 0 0 0 0
23 23 24 26 27 24 22 22 21 19 16 14 12 11 12 14 14 14 11 10 10 11 11 10 9 11 15 19 17 12 6 3 1 2 3 2 1 0 1 2 1 1 0
25 26 26 27 27 24 22 23 22 19 18 16 13 13 13 13 12 12 10 9 10 12 13 12 11 12 14 15 14 10 6 3 1 0 1 1 0 0 1 2 2 2 1
25 27 28 28 28 25 21 21 20 18 17 16 15 14 14 13 11 11 10 10 11 14 15 14 14 14 14 13 10 8 6 3 1 0 0 0 0 0 1 1 2 2 2
22 25 29 32 32 28 23 21 22 21 20 19 16 14 13 13 13 13 12 11 11 13 14 15 16 16 15 11 8 6 5 3 1 0 0 0 0 0 0 0 1 2 2
21 24 29 33 33 30 27 25 25 25 24 22 17 13 13 13 13 15 15 13 11 10 12 14 16 15 12 9 6 6 7 4 1 0 0 0 0 0 0 0 0 1 1
23 25 28 31 32 32 31 29 28 27 26 23 18 15 15 14 14 15 16 16 14 11 11 13 14 13 10 7 5 7 7 4 2 1 0 0 0 0 0 0 0 0 0
27 27 28 29 31 33 33 31 29 27 24 22 19 17 17 16 15 15 16 17 17 14 11 11 11 11 10 8 6 5 4 3 3 2 0 0 0 0 0 0 0 0 0
29 30 29 29 31 34 33 31 29 27 24 22 21 20 19 18 17 16 15 15 15 15 12 9 9 10 10 9 7 5 3 2 2 1 0 0 0 0 0 0 0 0 0
29 30 30 30 33 34 31 29 28 25 23 23 22 20 18 17 16 16 16 14 12 11 10 8 8 10 11 9 8 6 4 3 2 0 0 0 0 0 0 0 0 0 0
29 30 30 32 33 32 28 26 25 23 22 23 22 19 16 15 14 14 15 15 12 9 8 7 7 9 10 9 7 6 5 5 3 1 0 0 0 0 0 0 0 0 0
29 30 31 31 31 28 25 23 22 22 22 23 21 18 15 13 12 11 12 13 13 10 8 7 7 7 8 9 8 6 5 5 5 3 1 0 0 0 0 0 0 0 0
29 30 30 30 27 23 20 17 17 20 23 22 20 17 14 12 10 8 7 7 9 9 8 7 7 6 7 8 9 7 6 6 6 4 2 1 1 1 0 0 0 0 0
32 31 30 29 26 20 15 11 11 17 20 20 19 17 14 11 9 7 6 5 6 7 7 7 7 6 7 8 8 7 7 7 7 6 4 3 3 2 1 1 0 0 0
37 35 32 31 27 19 11 7 8 13 17 17 17 16 14 11 10 8 6 6 7 7 6 6 6 6 7 7 7 7 7 8 7 6 5 4 4 3 3 2 1 0 0
38 36 34 33 30 20 11 6 7 11 14 14 14 13 12 11 9 6 5 5 7 8 7 6 6 6 6 6 5 6 7 7 7 5 5 4 4 3 4 4 2 0 0
35 34 33 33 31 24 14 7 7 10 12 11 11 11 10 9 8 5 4 5 6 7 7 6 6 5 5 5 4 5 6 7 6 4 4 4 4 3 4 3 2 0 0
Wind_Speed
1 1 1 1 2 2 3 3 3 3 3 4 3 3 3 2 2 3 3 8 9 8 8 8 7 7 7 7 7 6 7 6 5 6 7 7 7 7 7 8 8 8 8
2 1 1 1 1 2 2 2 3 3 2 2 3 3 2 2 2 2 3 6 9 8 7 7 7 8 8 8 7 6 6 6 6 5 5 5 6 6 7 8 8 8 8
2 2 2 2 2 2 2 2 2 2 2 2 3 3 3 3 3 3 3 4 5 8 9 9 8 8 8 8 8 7 6 6 6 6 5 5 5 5 5 6 8 8 8
2 2 2 2 2 1 1 2 2 2 2 2 2 3 2 3 4 4 3 3 3 4 8 10 9 8 8 8 8 7 6 6 6 5 5 5 5 5 5 5 6 6 7
2 2 2 1 2 2 2 2 2 2 2 2 2 3 3 3 2 4 3 4 4 4 4 7 10 9 9 8 8 7 7 6 6 5 4 4 5 4 4 5 5 5 6
3 2 2 2 2 1 1 1 1 2 2 2 3 2 2 2 3 3 4 4 4 5 5 5 5 6 8 8 8 7 7 7 6 6 5 5 5 4 4 5 5 5 6
2 2 1 1 1 1 2 2 1 2 2 1 1 1 2 3 3 2 2 2 2 4 4 4 4 3 4 7 7 6 6 6 6 5 5 4 4 5 5 4 5 5 6
2 2 1 1 1 1 0 1 1 1 1 1 1 1 1 1 1 3 2 2 2 1 2 4 4 4 3 3 4 6 6 6 5 5 5 4 4 5 5 5 5 5 5
2 1 1 1 1 1 1 1 1 2 2 1 1 1 1 1 1 1 2 2 2 1 1 2 3 3 4 3 4 5 5 4 5 5 5 5 4 4 5 5 5 5 5
2 2 1 1 1 1 1 1 1 1 2 2 1 1 1 1 1 1 1 0 1 1 1 2 2 3 4 3 4 6 6 5 5 5 5 5 4 5 5 6 6 6 5
2 2 2 1 1 1 0 0 0 0 1 2 1 1 1 1 2 1 1 1 0 1 2 2 1 2 3 3 4 5 7 6 6 5 5 5 5 5 6 6 6 6 6
1 1 1 1 1 1 1 1 1 1 1 2 2 1 1 1 1 1 1 1 1 1 2 1 1 1 2 2 4 6 7 6 5 5 5 5 5 5 6 6 6 6 7
1 1 1 1 1 1 1 1 1 1 1 2 2 1 1 1 1 1 1 1 1 1 1 1 1 2 2 2 3 6 6 6 5 5 4 5 5 5 6 6 6 6 6
0 1 1 1 1 1 1 1 1 1 1 1 1 1 1 1 1 1 1 1 1 1 1 0 1 2 2 2 3 5 4 6 5 4 4 4 5 5 5 6 6 6 5
1 1 1 1 1 1 1 1 1 1 0 1 1 1 1 1 1 2 1 1 1 1 1 1 1 2 2 2 3 3 3 6 6 5 4 4 4 5 5 6 6 6 5
0 0 1 1 1 1 1 1 1 1 1 1 1 1 1 1 1 2 1 1 1 2 2 1 0 1 1 2 3 2 3 6 5 5 5 5 5 4 5 6 7 7 6
1 1 1 1 1 1 1 1 1 1 1 1 1 1 1 2 2 2 1 1 1 0 1 2 0 0 1 1 2 1 2 3 3 5 5 5 5 4 6 6 7 7 7
2 1 1 1 2 1 1 1 1 1 1 1 1 1 1 1 2 2 2 2 1 1 1 2 1 1 1 1 2 2 2 2 2 4 6 5 5 5 6 7 7 7 7
2 2 2 2 2 2 1 1 1 1 1 1 1 1 0 1 1 1 2 2 2 1 1 1 1 1 1 1 1 2 2 1 2 4 6 6 6 5 5 6 7 7 7
3 3 3 2 2 2 1 1 1 1 1 1 1 1 1 1 1 2 1 2 2 2 1 1 1 1 1 1 1 1 1 1 1 1 2 3 4 5 5 6 7 7 7
3 2 2 3 3 3 1 1 1 2 1 1 1 1 1 1 0 1 2 1 2 2 2 2 2 1 1 1 1 2 1 1 2 2 1 2 3 3 4 5 7 8 8
2 2 2 2 2 1 1 1 1 2 2 2 2 1 2 2 1 1 1 2 2 2 2 2 2 2 2 2 2 2 1 1 1 1 1 2 2 3 3 4 6 8 9
2 2 2 2 2 2 2 1 1 2 3 2 1 1 2 0 1 1 2 3 3 4 4 3 3 3 3 2 2 2 2 2 3 2 1 2 2 2 3 3 7 9 9
2 2 3 3 2 2 3 2 2 3 3 2 2 2 1 1 1 2 3 2 2 2 3 3 3 4 3 2 2 3 3 3 3 2 2 2 2 1 1 2 6 8 8
3 3 3 3 2 3 3 3 2 2 2 2 2 1 1 1 1 2 2 2 2 2 2 3 4 4 5 5 3 2 3 2 3 2 1 2 1 1 1 1 3 5 5
3 3 3 3 3 3 4 4 3 2 2 2 1 1 1 1 1 1 2 2 3 3 3 4 4 4 4 4 5 4 3 3 2 2 2 1 1 0 1 0 1 2 3
Wind_Direction
156 127 130 155 175 169 181 186 195 198 210 223 223 215 218 214 201 192 163 187 192 192 198 206 212 214 214 211 215 222 222 223 221 224 228 225 225 220 218 214 214 214 214
134 139 179 184 180 172 180 187 190 200 210 212 210 219 216 221 235 192 173 187 195 195 203 212 215 216 214 213 215 219 220 221 218 220 222 225 218 218 221 218 217 216 214
165 166 184 185 208 187 174 182 203 207 216 212 212 216 208 212 216 219 199 186 190 199 207 213 214 212 208 211 214 216 219 217 214 216 217 214 213 214 219 220 218 217 215
189 178 180 189 200 182 177 198 198 203 219 221 217 226 213 205 208 211 203 200 193 199 208 210 207 206 207 210 212 214 214 212 214 217 217 211 214 216 215 214 214 214 213
192 198 203 181 182 181 194 212 177 185 217 236 235 226 217 208 205 219 198 203 200 196 189 199 202 205 209 212 212 212 211 209 208 211 211 207 209 213 208 207 207 208 207
194 212 206 193 201 171 179 209 189 205 216 238 254 237 226 199 201 205 216 213 203 193 193 196 190 207 208 207 205 206 206 206 208 209 211 212 212 208 203 203 204 202 203
201 212 232 175 196 175 198 191 215 216 226 243 265 274 253 221 203 198 209 217 210 200 186 179 180 191 191 196 199 194 198 202 204 206 210 211 210 208 206 205 205 204 204
212 199 203 204 172 182 228 240 253 257 255 209 227 265 276 265 229 204 192 189 207 216 188 181 183 177 181 173 179 187 199 204 205 209 210 209 211 208 204 205 204 203 198
197 246 175 224 203 182 195 219 244 248 258 247 208 229 258 279 297 253 185 164 165 193 216 174 167 168 170 169 168 179 188 194 205 212 213 214 213 210 204 201 200 198 191
191 188 178 211 240 235 220 220 200 275 261 266 262 244 237 251 284 309 291 155 162 163 205 206 175 170 169 163 147 156 175 183 195 206 209 214 215 206 204 205 205 201 193
184 182 170 191 218 226 266 282 22 292 266 273 280 278 270 255 252 238 284 307 304 179 196 194 169 175 171 166 155 161 167 179 188 198 205 210 213 209 206 207 208 205 200
174 169 161 179 208 229 254 225 263 241 265 285 291 298 273 263 270 251 250 279 271 230 208 171 169 181 151 142 156 154 156 167 182 192 201 206 208 206 207 208 207 207 205
171 166 169 165 220 241 264 272 211 254 254 269 272 285 296 279 292 304 295 285 281 272 235 163 158 133 123 121 136 143 153 162 175 186 195 202 202 199 201 203 205 206 203
48 100 143 157 200 239 252 240 247 239 249 266 276 280 287 277 276 265 243 263 298 289 314 83 110 109 119 128 137 163 159 157 168 179 190 197 196 196 200 202 204 201 198
160 114 129 169 199 230 275 275 243 266 242 245 274 280 273 276 255 260 257 222 224 258 268 238 167 143 124 115 149 157 150 165 173 179 190 189 184 192 198 196 196 192 193
23 60 174 186 200 210 216 222 251 258 234 249 234 260 283 285 283 276 269 264 243 233 260 282 278 113 121 143 146 143 157 162 169 183 189 187 185 191 193 191 183 181 184
200 222 237 206 205 200 201 218 228 210 201 252 286 264 265 280 299 298 307 295 288 271 264 290 293 136 141 148 132 184 179 169 173 185 187 188 187 187 186 181 179 179 180
196 213 225 213 212 192 212 228 236 241 254 241 262 282 305 318 317 315 309 299 293 266 243 281 273 232 218 193 165 210 203 179 170 181 187 187 188 190 185 179 174 175 179
200 209 216 213 217 207 215 226 233 243 263 275 274 269 241 281 295 299 295 300 299 302 259 268 272 244 228 209 205 241 226 212 201 181 184 190 192 188 179 177 175 178 184
207 213 220 216 206 203 211 231 259 237 258 285 272 255 260 243 297 301 294 306 309 316 308 293 277 262 248 236 215 250 254 232 239 206 178 185 188 191 190 187 184 185 190
217 218 227 229 216 199 204 193 256 232 242 254 266 257 257 177 189 304 315 325 323 313 304 291 284 292 276 293 259 257 254 237 237 187 178 193 181 188 198 202 199 196 195
227 220 229 236 227 215 133 144 261 268 261 252 254 248 222 190 188 218 247 268 276 278 294 292 294 287 280 271 271 271 265 254 255 211 189 235 195 192 197 194 193 194 197
211 219 226 223 198 160 140 128 305 276 272 269 270 261 257 245 167 260 249 240 252 261 247 247 267 279 282 293 290 289 286 265 261 255 226 253 226 210 201 198 183 189 197
209 215 221 224 193 167 159 172 279 255 262 262 257 245 224 178 278 288 277 269 266 279 263 239 245 258 266 270 260 256 263 269 269 264 232 250 242 231 234 187 186 187 194
220 224 216 214 194 168 180 189 222 253 250 251 251 264 216 179 298 309 288 275 270 276 293 281 254 250 252 254 252 264 266 263 265 260 255 254 255 283 262 204 179 177 194
226 235 229 213 197 176 181 181 193 244 255 257 242 183 143 171 267 285 273 272 264 268 282 290 282 269 256 243 231 223 239 248 251 254 236 233 227 232 283 221 161 182 200